DLH877 ENBR-EDDF

Flight info

Callsign DLH877
Flight time 1h 22m
Altitude 37000
Route TUXIL DCT ZOL DCT GREFI DCT SOGPO DCT DIXAT DIXAT1A
Aircraft A320/M-SDE2E3FGIJ1LORWXYZ/HB1

Departure

Time 2026-05-06 19:07
Airport Bergen Airport, Flesland (ENBR)

Arrival

Time 2026-05-06 20:30
Airport Frankfurt Main Airport (EDDF)
Time Latitude Longitude Altitude Speed Heading
2026-05-06 18:50 60.28891 5.22537 150 ft 0 kts 101°
2026-05-06 18:57 60.28892 5.22520 150 ft 4 kts 98°
2026-05-06 18:58 60.28894 5.22484 150 ft 4 kts 82°
2026-05-06 18:58 60.28885 5.22437 150 ft 4 kts 41°
2026-05-06 18:58 60.28861 5.22421 150 ft 1 kts 349°
2026-05-06 18:58 60.28857 5.22422 150 ft 0 kts 349°
2026-05-06 19:02 60.28873 5.22416 150 ft 6 kts 349°
2026-05-06 19:02 60.28904 5.22404 150 ft 8 kts 348°
2026-05-06 19:02 60.28953 5.22385 151 ft 6 kts 349°
2026-05-06 19:03 60.29007 5.22367 151 ft 7 kts 353°
2026-05-06 19:03 60.29068 5.22351 152 ft 10 kts 352°
2026-05-06 19:03 60.29149 5.22326 153 ft 14 kts 351°
2026-05-06 19:03 60.29256 5.22287 153 ft 18 kts 349°
2026-05-06 19:04 60.29386 5.22229 155 ft 18 kts 326°
2026-05-06 19:04 60.29436 5.22109 155 ft 17 kts 338°
2026-05-06 19:04 60.29599 5.22048 156 ft 19 kts 348°
2026-05-06 19:04 60.29687 5.22018 157 ft 20 kts 352°
2026-05-06 19:05 60.29872 5.21956 159 ft 21 kts 352°
2026-05-06 19:05 60.30024 5.21908 160 ft 23 kts 351°
2026-05-06 19:05 60.30182 5.21854 162 ft 24 kts 351°
2026-05-06 19:05 60.30350 5.21798 163 ft 25 kts 350°
2026-05-06 19:06 60.30522 5.21740 164 ft 25 kts 352°
2026-05-06 19:06 60.30637 5.21697 165 ft 25 kts 344°
2026-05-06 19:06 60.30660 5.21536 166 ft 13 kts 252°
2026-05-06 19:06 60.30617 5.21394 168 ft 12 kts 181°
2026-05-06 19:07 60.30492 5.21431 163 ft 38 kts 171°
2026-05-06 19:07 60.29965 5.21607 162 ft 111 kts 171°
2026-05-06 19:07 60.29011 5.21925 223 ft 157 kts 171°
2026-05-06 19:07 60.27970 5.22264 975 ft 153 kts 172°
2026-05-06 19:08 60.26889 5.22618 1568 ft 166 kts 173°
2026-05-06 19:08 60.25671 5.23011 1962 ft 187 kts 172°
2026-05-06 19:08 60.24335 5.23457 2365 ft 207 kts 172°
2026-05-06 19:08 60.22806 5.23962 2747 ft 233 kts 172°
2026-05-06 19:09 60.21151 5.24511 3291 ft 255 kts 172°
2026-05-06 19:09 60.19368 5.25111 4174 ft 263 kts 172°
2026-05-06 19:09 60.17549 5.25725 5188 ft 266 kts 172°
2026-05-06 19:09 60.15721 5.26339 6183 ft 270 kts 173°
2026-05-06 19:10 60.13858 5.26963 7126 ft 274 kts 173°
2026-05-06 19:10 60.11964 5.27598 8045 ft 278 kts 173°
2026-05-06 19:10 60.10037 5.28239 8971 ft 283 kts 173°
2026-05-06 19:10 60.08079 5.28864 9897 ft 287 kts 174°
2026-05-06 19:11 60.06058 5.29431 10428 ft 304 kts 176°
2026-05-06 19:11 60.03883 5.29993 10817 ft 323 kts 176°
2026-05-06 19:11 60.01624 5.30567 11528 ft 331 kts 177°
2026-05-06 19:11 59.99315 5.31159 12306 ft 337 kts 178°
2026-05-06 19:12 59.96973 5.31770 13152 ft 341 kts 178°
2026-05-06 19:12 59.94612 5.32393 13982 ft 344 kts 179°
2026-05-06 19:12 59.92229 5.33026 14715 ft 347 kts 179°
2026-05-06 19:12 59.89825 5.33668 15441 ft 350 kts 179°
2026-05-06 19:13 59.87396 5.34320 16174 ft 354 kts 179°
2026-05-06 19:13 59.84945 5.34974 16898 ft 357 kts 180°
2026-05-06 19:13 59.82475 5.35631 17620 ft 360 kts 180°
2026-05-06 19:13 59.79977 5.36290 18331 ft 363 kts 180°
2026-05-06 19:14 59.77490 5.36845 18906 ft 365 kts 182°
2026-05-06 19:14 59.74954 5.37292 19534 ft 366 kts 184°
2026-05-06 19:14 59.72405 5.37678 20134 ft 369 kts 184°
2026-05-06 19:14 59.69838 5.38041 20726 ft 372 kts 184°
2026-05-06 19:15 59.67244 5.38414 21305 ft 375 kts 184°
2026-05-06 19:15 59.64628 5.38811 21873 ft 379 kts 184°
2026-05-06 19:15 59.61985 5.39329 22428 ft 384 kts 182°
2026-05-06 19:15 59.59325 5.39982 22964 ft 388 kts 181°
2026-05-06 19:16 59.56639 5.40714 23507 ft 391 kts 181°
2026-05-06 19:16 59.53931 5.41468 23986 ft 394 kts 181°
2026-05-06 19:16 59.51212 5.42211 24467 ft 396 kts 181°
2026-05-06 19:16 59.48470 5.42941 24893 ft 397 kts 181°
2026-05-06 19:17 59.45727 5.43646 25354 ft 398 kts 181°
2026-05-06 19:17 59.42971 5.44332 25829 ft 400 kts 181°
2026-05-06 19:17 59.40213 5.45019 26301 ft 401 kts 180°
2026-05-06 19:17 59.37468 5.45827 26758 ft 405 kts 179°
2026-05-06 19:18 59.34684 5.46800 27209 ft 407 kts 177°
2026-05-06 19:18 59.31897 5.47863 27665 ft 409 kts 177°
2026-05-06 19:18 59.29102 5.48958 28116 ft 411 kts 177°
2026-05-06 19:18 59.26295 5.50049 28556 ft 412 kts 177°
2026-05-06 19:19 59.23468 5.51118 28987 ft 413 kts 178°
2026-05-06 19:19 59.20637 5.52159 29408 ft 414 kts 178°
2026-05-06 19:19 59.17793 5.53185 29708 ft 417 kts 178°
2026-05-06 19:19 59.14929 5.54209 30062 ft 420 kts 178°
2026-05-06 19:20 59.12041 5.55181 30364 ft 419 kts 182°
2026-05-06 19:20 59.09144 5.55499 30627 ft 418 kts 185°
2026-05-06 19:20 59.06228 5.55728 30887 ft 420 kts 185°
2026-05-06 19:20 59.03296 5.55941 31143 ft 423 kts 185°
2026-05-06 19:21 59.00342 5.56145 31394 ft 427 kts 185°
2026-05-06 19:21 58.97361 5.56357 31637 ft 430 kts 185°
2026-05-06 19:21 58.94370 5.56579 31984 ft 430 kts 185°
2026-05-06 19:21 58.91414 5.56806 32319 ft 431 kts 185°
2026-05-06 19:22 58.88415 5.57035 32605 ft 432 kts 185°
2026-05-06 19:22 58.85406 5.57269 32936 ft 433 kts 184°
2026-05-06 19:22 58.82395 5.57512 33290 ft 434 kts 184°
2026-05-06 19:22 58.79375 5.57765 33642 ft 434 kts 184°
2026-05-06 19:23 58.76352 5.58017 33994 ft 435 kts 184°
2026-05-06 19:23 58.73321 5.58266 34296 ft 436 kts 184°
2026-05-06 19:23 58.70284 5.58511 34572 ft 436 kts 184°
2026-05-06 19:23 58.67248 5.58751 34851 ft 436 kts 184°
2026-05-06 19:24 58.64211 5.58993 35136 ft 437 kts 184°
2026-05-06 19:24 58.61213 5.59238 35400 ft 437 kts 183°
2026-05-06 19:24 58.58175 5.59492 35660 ft 437 kts 183°
2026-05-06 19:24 58.55142 5.59745 35918 ft 437 kts 183°
2026-05-06 19:25 58.52097 5.59995 36171 ft 437 kts 183°
2026-05-06 19:25 58.49049 5.60242 36418 ft 438 kts 183°
2026-05-06 19:25 58.46005 5.60487 36662 ft 438 kts 183°
2026-05-06 19:25 58.42963 5.60731 36900 ft 438 kts 183°
2026-05-06 19:26 58.39912 5.60972 37031 ft 438 kts 183°
2026-05-06 19:26 58.33850 5.61449 37032 ft 435 kts 182°
2026-05-06 19:27 58.27809 5.61937 37053 ft 434 kts 182°
2026-05-06 19:27 58.21775 5.62421 37052 ft 434 kts 182°
2026-05-06 19:28 58.15742 5.62904 37057 ft 434 kts 182°
2026-05-06 19:28 58.09703 5.63383 37057 ft 434 kts 182°
2026-05-06 19:29 58.03671 5.63854 37037 ft 434 kts 182°
2026-05-06 19:29 57.97678 5.64327 37050 ft 434 kts 182°
2026-05-06 19:30 57.91648 5.64798 37054 ft 433 kts 182°
2026-05-06 19:30 57.85620 5.65267 37059 ft 433 kts 182°
2026-05-06 19:31 57.79600 5.65739 37033 ft 433 kts 182°
2026-05-06 19:31 57.70571 5.66420 37053 ft 432 kts 182°
2026-05-06 19:32 57.64552 5.66889 37060 ft 432 kts 182°
2026-05-06 19:32 57.58540 5.67361 37062 ft 432 kts 182°
2026-05-06 19:33 57.52536 5.67821 37059 ft 432 kts 182°
2026-05-06 19:33 57.46536 5.68272 37042 ft 432 kts 182°
2026-05-06 19:34 57.40526 5.68741 37051 ft 432 kts 182°
2026-05-06 19:34 57.34530 5.69190 37055 ft 432 kts 182°
2026-05-06 19:35 57.28525 5.69646 37057 ft 432 kts 182°
2026-05-06 19:35 57.22526 5.70097 37038 ft 431 kts 182°
2026-05-06 19:36 57.16527 5.70548 37052 ft 431 kts 182°
2026-05-06 19:36 57.10570 5.71001 37059 ft 431 kts 182°
2026-05-06 19:37 57.04573 5.71445 37065 ft 431 kts 182°
2026-05-06 19:37 56.99547 5.71813 37062 ft 431 kts 182°
2026-05-06 19:38 56.92581 5.72326 37044 ft 431 kts 182°
2026-05-06 19:38 56.86592 5.72771 37052 ft 431 kts 182°
2026-05-06 19:39 56.80600 5.73217 37060 ft 430 kts 182°
2026-05-06 19:39 56.74615 5.73663 37065 ft 430 kts 182°
2026-05-06 19:40 56.68636 5.74097 37040 ft 430 kts 182°
2026-05-06 19:40 56.62659 5.74528 37050 ft 430 kts 182°
2026-05-06 19:41 56.56688 5.74968 37055 ft 429 kts 182°
2026-05-06 19:41 56.50758 5.75395 37057 ft 429 kts 182°
2026-05-06 19:42 56.44790 5.75827 37058 ft 429 kts 182°
2026-05-06 19:42 56.38835 5.76253 37039 ft 428 kts 182°
2026-05-06 19:43 56.32885 5.76682 37054 ft 427 kts 182°
2026-05-06 19:43 56.26956 5.77098 37058 ft 426 kts 182°
2026-05-06 19:44 56.21026 5.77527 37061 ft 426 kts 182°
2026-05-06 19:44 56.15104 5.77947 37042 ft 425 kts 182°
2026-05-06 19:45 56.09188 5.78356 37041 ft 425 kts 182°
2026-05-06 19:45 56.03283 5.78777 37045 ft 425 kts 181°
2026-05-06 19:46 55.97377 5.79199 37043 ft 424 kts 182°
2026-05-06 19:46 55.91505 5.79618 37042 ft 424 kts 182°
2026-05-06 19:47 55.85609 5.80023 37041 ft 424 kts 182°
2026-05-06 19:47 55.79708 5.80437 37041 ft 424 kts 181°
2026-05-06 19:48 55.73809 5.80851 37043 ft 424 kts 182°
2026-05-06 19:48 55.67908 5.81259 37043 ft 424 kts 182°
2026-05-06 19:49 55.62004 5.81661 37008 ft 424 kts 181°
2026-05-06 19:49 55.56149 5.82071 37019 ft 424 kts 181°
2026-05-06 19:50 55.50250 5.82481 37026 ft 424 kts 181°
2026-05-06 19:50 55.44353 5.82887 37030 ft 424 kts 182°
2026-05-06 19:51 55.38457 5.83284 37017 ft 424 kts 181°
2026-05-06 19:51 55.32566 5.83693 37023 ft 424 kts 181°
2026-05-06 19:52 55.26673 5.84088 37029 ft 424 kts 181°
2026-05-06 19:52 55.20780 5.84482 37028 ft 424 kts 181°
2026-05-06 19:53 55.14890 5.84878 37030 ft 424 kts 181°
2026-05-06 19:53 55.09000 5.85261 37015 ft 424 kts 181°
2026-05-06 19:54 55.03110 5.85657 37021 ft 424 kts 181°
2026-05-06 19:54 54.93346 5.86655 37030 ft 425 kts 179°
2026-05-06 19:55 54.69728 5.90085 37023 ft 425 kts 179°
2026-05-06 19:55 54.46311 5.93286 37008 ft 424 kts 179°
2026-05-06 19:56 54.22746 5.96463 36999 ft 425 kts 178°
2026-05-06 19:56 53.99168 5.99600 36973 ft 425 kts 178°
2026-05-06 19:57 53.75552 6.02706 36951 ft 426 kts 178°
2026-05-06 19:57 53.55874 6.05294 36940 ft 426 kts 178°
2026-05-06 19:58 53.32172 6.08354 36954 ft 427 kts 178°
2026-05-06 19:58 53.08460 6.11387 36946 ft 427 kts 178°
2026-05-06 19:59 52.84783 6.14388 36945 ft 427 kts 178°
2026-05-06 19:59 52.61124 6.17339 36946 ft 426 kts 178°
2026-05-06 20:00 52.37504 6.20277 36940 ft 425 kts 178°
2026-05-06 20:00 52.18411 6.22615 36942 ft 425 kts 178°
2026-05-06 20:01 52.12505 6.23337 36946 ft 425 kts 178°
2026-05-06 20:01 52.06601 6.24067 36940 ft 426 kts 178°
2026-05-06 20:02 52.00695 6.24846 36937 ft 426 kts 173°
2026-05-06 20:02 51.97776 6.25918 36710 ft 435 kts 163°
2026-05-06 20:02 51.95025 6.27838 36350 ft 437 kts 153°
2026-05-06 20:03 51.92503 6.30589 35992 ft 438 kts 143°
2026-05-06 20:03 51.90151 6.33698 35641 ft 435 kts 143°
2026-05-06 20:03 51.87804 6.36784 35290 ft 432 kts 143°
2026-05-06 20:03 51.85474 6.39827 34949 ft 429 kts 143°
2026-05-06 20:04 51.83157 6.42837 34609 ft 425 kts 143°
2026-05-06 20:04 51.80858 6.45815 34279 ft 422 kts 143°
2026-05-06 20:04 51.78576 6.48773 33950 ft 419 kts 143°
2026-05-06 20:04 51.76312 6.51707 33564 ft 416 kts 143°
2026-05-06 20:05 51.74066 6.54618 33179 ft 413 kts 143°
2026-05-06 20:05 51.71834 6.57507 32782 ft 409 kts 143°
2026-05-06 20:05 51.69620 6.60364 32398 ft 406 kts 143°
2026-05-06 20:05 51.67421 6.63195 32028 ft 403 kts 143°
2026-05-06 20:06 51.65242 6.66003 31657 ft 399 kts 143°
2026-05-06 20:06 51.63084 6.68789 31294 ft 396 kts 143°
2026-05-06 20:06 51.60938 6.71556 30934 ft 393 kts 143°
2026-05-06 20:06 51.58814 6.74291 30575 ft 390 kts 143°
2026-05-06 20:07 51.56699 6.77004 30220 ft 388 kts 143°
2026-05-06 20:07 51.54592 6.79704 29863 ft 386 kts 143°
2026-05-06 20:07 51.52495 6.82391 29451 ft 384 kts 143°
2026-05-06 20:07 51.50412 6.85056 29050 ft 382 kts 143°
2026-05-06 20:08 51.48341 6.87700 28659 ft 380 kts 143°
2026-05-06 20:08 51.46277 6.90332 28269 ft 378 kts 143°
2026-05-06 20:08 51.44224 6.92944 27878 ft 376 kts 143°
2026-05-06 20:08 51.42181 6.95546 27500 ft 374 kts 143°
2026-05-06 20:09 51.40151 6.98132 27128 ft 372 kts 143°
2026-05-06 20:09 51.38125 7.00705 26759 ft 370 kts 143°
2026-05-06 20:09 51.36105 7.03265 26392 ft 369 kts 143°
2026-05-06 20:09 51.34102 7.05801 26031 ft 366 kts 143°
2026-05-06 20:10 51.32108 7.08318 25684 ft 364 kts 143°
2026-05-06 20:10 51.30123 7.10827 25336 ft 363 kts 143°
2026-05-06 20:10 51.28150 7.13317 24991 ft 361 kts 143°
2026-05-06 20:10 51.26084 7.15575 24645 ft 359 kts 152°
2026-05-06 20:11 51.23867 7.17379 24296 ft 357 kts 155°
2026-05-06 20:11 51.21645 7.19135 23971 ft 357 kts 155°
2026-05-06 20:11 51.19422 7.20889 23636 ft 356 kts 154°
2026-05-06 20:11 51.17208 7.22641 23265 ft 355 kts 154°
2026-05-06 20:12 51.15002 7.24385 22890 ft 353 kts 154°
2026-05-06 20:12 51.12836 7.26098 22511 ft 351 kts 155°
2026-05-06 20:12 51.10657 7.27832 22137 ft 350 kts 154°
2026-05-06 20:12 51.08494 7.29597 21761 ft 348 kts 154°
2026-05-06 20:13 51.06355 7.31371 21388 ft 345 kts 154°
2026-05-06 20:13 51.04238 7.33140 21018 ft 343 kts 153°
2026-05-06 20:13 51.02134 7.34898 20672 ft 341 kts 154°
2026-05-06 20:13 51.00035 7.36634 20313 ft 339 kts 154°
2026-05-06 20:14 50.97946 7.38351 19957 ft 338 kts 154°
2026-05-06 20:14 50.95863 7.40054 19624 ft 336 kts 154°
2026-05-06 20:14 50.93787 7.41754 19271 ft 334 kts 154°
2026-05-06 20:14 50.91726 7.43445 18929 ft 333 kts 154°
2026-05-06 20:15 50.89671 7.45131 18603 ft 332 kts 154°
2026-05-06 20:15 50.87628 7.46803 18265 ft 330 kts 154°
2026-05-06 20:15 50.85590 7.48471 17955 ft 329 kts 154°
2026-05-06 20:15 50.83556 7.50132 17670 ft 328 kts 154°
2026-05-06 20:16 50.81529 7.51788 17404 ft 328 kts 154°
2026-05-06 20:16 50.79508 7.53432 17129 ft 326 kts 154°
2026-05-06 20:16 50.77493 7.55071 16865 ft 325 kts 154°
2026-05-06 20:16 50.75483 7.56703 16601 ft 324 kts 154°
2026-05-06 20:17 50.73483 7.58324 16340 ft 323 kts 154°
2026-05-06 20:17 50.71488 7.59948 16078 ft 322 kts 154°
2026-05-06 20:17 50.69504 7.61561 15825 ft 320 kts 154°
2026-05-06 20:17 50.67528 7.63166 15590 ft 319 kts 154°
2026-05-06 20:18 50.65552 7.64766 15328 ft 318 kts 154°
2026-05-06 20:18 50.63588 7.66354 15068 ft 317 kts 154°
2026-05-06 20:18 50.61629 7.67937 14815 ft 316 kts 155°
2026-05-06 20:18 50.59674 7.69515 14571 ft 315 kts 155°
2026-05-06 20:19 50.57729 7.71084 14328 ft 314 kts 155°
2026-05-06 20:19 50.55790 7.72650 14081 ft 313 kts 155°
2026-05-06 20:19 50.53856 7.74211 13847 ft 312 kts 155°
2026-05-06 20:19 50.51929 7.75761 13601 ft 311 kts 155°
2026-05-06 20:20 50.49689 7.77557 13286 ft 310 kts 155°
2026-05-06 20:20 50.42207 7.84072 12224 ft 308 kts 142°
2026-05-06 20:20 50.35593 7.92354 11191 ft 298 kts 144°
2026-05-06 20:20 50.29135 8.00316 10225 ft 294 kts 144°
2026-05-06 20:21 50.23565 8.09473 9924 ft 297 kts 130°
2026-05-06 20:21 50.18522 8.19646 9104 ft 291 kts 130°
2026-05-06 20:21 50.13628 8.29505 7526 ft 283 kts 130°
2026-05-06 20:21 50.10580 8.40373 5886 ft 285 kts 84°
2026-05-06 20:22 50.13118 8.51694 4972 ft 257 kts 70°
2026-05-06 20:22 50.15479 8.61792 5017 ft 247 kts 69°
2026-05-06 20:22 50.17869 8.71800 5001 ft 246 kts 69°
2026-05-06 20:22 50.20028 8.80931 4995 ft 246 kts 70°
2026-05-06 20:23 50.20361 8.83524 4990 ft 245 kts 95°
2026-05-06 20:23 50.19838 8.86000 4993 ft 241 kts 127°
2026-05-06 20:23 50.18612 8.87716 4996 ft 237 kts 152°
2026-05-06 20:23 50.17083 8.88611 4995 ft 234 kts 172°
2026-05-06 20:24 50.15471 8.88644 4995 ft 230 kts 192°
2026-05-06 20:24 50.14022 8.87886 4992 ft 213 kts 210°
2026-05-06 20:24 50.12896 8.86584 5002 ft 189 kts 227°
2026-05-06 20:24 50.12144 8.85030 4940 ft 176 kts 241°
2026-05-06 20:25 50.11677 8.83300 4700 ft 168 kts 250°
2026-05-06 20:25 50.11282 8.81621 4461 ft 163 kts 250°
2026-05-06 20:25 50.10899 8.79997 4238 ft 161 kts 251°
2026-05-06 20:25 50.10509 8.78340 3999 ft 161 kts 251°
2026-05-06 20:26 50.10121 8.76698 3767 ft 162 kts 251°
2026-05-06 20:26 50.09732 8.75055 3537 ft 162 kts 252°
2026-05-06 20:26 50.09343 8.73408 3306 ft 162 kts 252°
2026-05-06 20:26 50.08957 8.71776 3074 ft 160 kts 252°
2026-05-06 20:27 50.08579 8.70179 2841 ft 159 kts 252°
2026-05-06 20:27 50.08196 8.68567 2607 ft 159 kts 253°
2026-05-06 20:27 50.07821 8.66989 2383 ft 145 kts 253°
2026-05-06 20:27 50.07485 8.65577 2177 ft 135 kts 254°
2026-05-06 20:28 50.07165 8.64228 1988 ft 132 kts 253°
2026-05-06 20:28 50.06855 8.62920 1797 ft 130 kts 253°
2026-05-06 20:28 50.06545 8.61617 1621 ft 127 kts 253°
2026-05-06 20:28 50.06240 8.60329 1426 ft 127 kts 253°
2026-05-06 20:29 50.05932 8.59030 1224 ft 128 kts 252°
2026-05-06 20:29 50.05619 8.57725 1035 ft 129 kts 253°
2026-05-06 20:29 50.05307 8.56418 845 ft 130 kts 252°
2026-05-06 20:29 50.04995 8.55106 656 ft 128 kts 252°
2026-05-06 20:30 50.04685 8.53803 470 ft 128 kts 252°
2026-05-06 20:30 50.04173 8.51662 333 ft 44 kts 250°
2026-05-06 20:30 50.04087 8.51307 330 ft 34 kts 250°